Regional Weather Roundup
Issued by NWS

Home | Current Version | Previous Version | Text Only | Print | Product List | Glossary Off
Versions: 1 2 3 4 5 6 7 8 9 10 11 12 13 14 15 16 17 18 19 20 21 22 23 24 25 26 27 28 29 30 31 32 33 34 35 36 37 38 39 40 41 42 43 44 45 46 47 48 49 50

924
ASUS45 KPSR 200410
RWRAZ

ARIZONA HOURLY REGIONAL WEATHER ROUNDUP
NATIONAL WEATHER SERVICE PHOENIX AZ
900 PM MST SUN FEB 19 2017

NOTE: FAIR INDICATES FEW OR NO CLOUDS BELOW 12,000 FEET WITH NO
SIGNIFICANT WEATHER AND/OR OBSTRUCTIONS TO VISIBILITY.

AZZ001>003-036-200500-
NORTHWEST ARIZONA

CITY           SKY/WX    TMP DP  RH WIND       PRES   REMARKS
BULLHEAD CITY  CLOUDY    61  52  72 CALM      30.01R
KINGMAN        CLOUDY    49  41  74 SW7       30.04R
$$

AZZ004>008-015-016-018-200500-
NORTH CENTRAL ARIZONA

CITY           SKY/WX    TMP DP  RH WIND       PRES   REMARKS
GRAND CANYON   CLOUDY    36  36 100 SW7       30.05R WCI  30
WILLIAMS       CLOUDY    34  34 100 CALM      30.07R
PRESCOTT       CLOUDY    42  38  85 W6        30.07R
FLAGSTAFF      CLOUDY    34  32  92 W8        30.06R WCI  27
PAYSON         CLOUDY    41  41 100 CALM      30.10R
PAGE           CLEAR     48  32  53 W5        29.97R
$$

AZZ009>014-017-200500-
NORTHEAST ARIZONA

CITY           SKY/WX    TMP DP  RH WIND       PRES   REMARKS
WINSLOW        PTCLDY    39  34  82 S5        30.03R
SAINT JOHNS    CLOUDY    41  32  70 W16       30.02R
WINDOW ROCK    LGT RAIN  37  33  85 W6        30.01R WCI  32
SHOW LOW       CLOUDY    34  32  93 S13G20    30.06R WCI  25
$$

AZZ023-200500-
GREATER PHOENIX AREA

CITY           SKY/WX    TMP DP  RH WIND       PRES   REMARKS
PHOENIX        MOCLDY    56  52  86 SE5       30.04R
BUCKEYE        PTCLDY    54  54 100 E5        30.06R
LUKE AFB       PTCLDY    57  56  99 S3        30.05R
DEER VALLEY    PTCLDY    54  51  90 E7        30.05R
SCOTTSDALE     PTCLDY    54  51  90 CALM      30.02R
MESA-GATEWAY   MOCLDY    54  52  94 SE3       30.08R
CHANDLER       MOCLDY    55  52  88 E6        30.06R
$$

AZZ027-028-200500-
SOUTHWEST MARICOPA COUNTY AND PINAL COUNTY

CITY           SKY/WX    TMP DP  RH WIND       PRES   REMARKS
CASA GRANDE    NOT AVBL
GILA BEND      CLOUDY    56  53  91 SE6       30.05R
$$

AZZ503-504-507>509-200500-
SOUTHEAST ARIZONA

CITY           SKY/WX    TMP DP  RH WIND       PRES   REMARKS
TUCSON         CLOUDY    52  48  86 S3        30.10R
DAVIS-MONTHAN  MOCLDY    52  48  87 S3        30.09R
NOGALES        PTCLDY    46  42  86 SE5       30.10R
SIERRA VISTA   CLOUDY    47  36  65 S10       30.10R
DOUGLAS        PTCLDY    45  41  86 CALM      30.10R
SAFFORD        CLOUDY    51  40  65 NW12      30.05R
$$

AZZ020-021-025-026-031-200500-
SOUTHWEST ARIZONA

CITY           SKY/WX    TMP DP  RH WIND       PRES   REMARKS
YUMA           PTCLDY    60  54  80 SE7       30.03R
$$

CAZ031-033-041-043-047-048-061-200500-
SOUTHERN CALIFORNIA

CITY           SKY/WX    TMP DP  RH WIND       PRES   REMARKS
DOWNTOWN L.A.  LGT RAIN  57  50  77 CALM      30.10R
L.A. AIRPORT   CLOUDY    56  50  80 VRB3      30.10R
SAN DIEGO      MOCLDY    58  44  60 SW3       30.15R
BURBANK        LGT RAIN  53  49  86 SE6       30.08R FOG
ONTARIO        CLOUDY    53  46  77 W7        30.10R
RIVERSIDE      CLOUDY    54  48  80 CALM      30.11R
PALM SPRINGS   PTCLDY    61  49  64 NW13      30.04R
EL CENTRO NAS  CLEAR     58  42  55 W9        30.05R
IMPERIAL       CLEAR     58  44  60 W8        30.02R
BLYTHE         MOCLDY    60  53  77 S7        30.01R
NEEDLES        PTCLDY    59  52  77 W3        30.01R
$$

NVZ020-UTZ003-200500-
SOUTHERN NEVADA-UTAH

CITY           SKY/WX    TMP DP  RH WIND       PRES   REMARKS
LAS VEGAS      PTCLDY    56  40  55 S6        29.95R
SALT LAKE CITY PTCLDY    44  38  79 SE8       29.86R
$$

NMZ009-TXZ055-200500-
NEW MEXICO-WEST TEXAS

CITY           SKY/WX    TMP DP  RH WIND       PRES   REMARKS
ALBUQUERQUE    CLOUDY    46  31  55 W6        29.98R
EL PASO        PTCLDY    52  30  43 NW10      30.00R
$$


........................KEY........................
SKY/WX - SKY CONDITION/WEATHER
TMP    - TEMPERATURE IN FAHRENHEIT
DP     - DEW POINT IN FAHRENHEIT
RH     - RELATIVE HUMIDITY IN PERCENT
WIND   - DIRECTION AND SPEED IN MILES PER HOUR (MPH)
VRB    - VARIABLE WIND DIRECTION
PRES   - MEAN SEA LEVEL PRESSURE IN INCHES OF MERCURY
         F - FALLING PRESSURE   R - RISING PRESSURE
         S - STEADY PRESSURE
VSB    - VISIBILITY IN MILES
HX     - HEAT INDEX IN FAHRENHEIT
WCI    - WIND CHILL INDEX IN FAHRENHEIT
TC     - TEMPERATURE IN CELSIUS WHICH IS ALSO KNOWN AS
         TEMPERATURE IN CENTIGRADE
AFB    - AIR FORCE BASE
         LUKE AFB IS LUKE AIR FORCE BASE
         DAVIS-MONTHAN IS DAVIS-MONTHAN AIR FORCE BASE
NAS    - NAVAL AIR STATION
         EL CENTRO NAS IS EL CENTRO NAVAL AIR STATION
N/A    - NOT AVAILABLE





USA.gov is the U.S. government's official web portal to all federal, state and local government web resources and services.